Hourly Data Report for July 24, 2004

TORONTO CITY
ONTARIO

43°40'00.000" N
79°24'00.000" W
112.50 m
6158355
71508
XTO

Download Data

Hourly Data (July 2004)
Hourly Data Report for July 24, 2004
TIME
LST
Temp Definition
°C
Dew Point Definition
°C
Rel Hum Definition
%
Precip. Amount Definition
mm

Wind Dir Definition
10's deg

Wind Spd Definition
km/h
Visibility Definition
km
Stn Press Definition
kPa
Hmdx Definition


Wind Chill Definition


Weather Definition


00:00 16.1 9.0 63   LegendMM LegendMM LegendMM 100.84     LegendNANA
01:00 16.4 9.2 62   LegendMM LegendMM LegendMM 100.88     LegendNANA
02:00 15.8 9.3 65   LegendMM LegendMM LegendMM 100.91     LegendNANA
03:00 15.4 8.5 63   LegendMM LegendMM LegendMM 100.99     LegendNANA
04:00 14.7 8.4 66   LegendMM LegendMM LegendMM 101.05     LegendNANA
05:00 13.9 8.5 70   LegendMM LegendMM LegendMM 101.14     LegendNANA
06:00 14.0 8.3 68   LegendMM LegendMM LegendMM 101.23     LegendNANA
07:00 15.3 9.1 66   LegendMM LegendMM LegendMM 101.29     LegendNANA
08:00 17.5 9.2 58   LegendMM LegendMM LegendMM 101.34     LegendNANA
09:00 19.3 7.7 47   LegendMM LegendMM LegendMM 101.38     LegendNANA
10:00 20.1 4.8 37   LegendMM LegendMM LegendMM 101.39     LegendNANA
11:00 20.5 7.8 44   LegendMM LegendMM LegendMM 101.42     LegendNANA
12:00 21.1 8.7 45   LegendMM LegendMM LegendMM 101.40     LegendNANA
13:00 20.2 9.6 50   LegendMM LegendMM LegendMM 101.39     LegendNANA
14:00 21.2 8.6 44   LegendMM LegendMM LegendMM 101.37     LegendNANA
15:00 20.6 8.6 46   LegendMM LegendMM LegendMM 101.34     LegendNANA
16:00 20.5 9.5 49   LegendMM LegendMM LegendMM 101.32     LegendNANA
17:00 20.5 10.1 51   LegendMM LegendMM LegendMM 101.35     LegendNANA
18:00 19.8 9.2 50   LegendMM LegendMM LegendMM 101.32     LegendNANA
19:00 19.3 10.9 58   LegendMM LegendMM LegendMM 101.34     LegendNANA
20:00 17.9 11.0 64   LegendMM LegendMM LegendMM 101.35     LegendNANA
21:00 17.6 10.9 65   LegendMM LegendMM LegendMM 101.35     LegendNANA
22:00 17.4 11.5 68   LegendMM LegendMM LegendMM 101.37     LegendNANA
23:00 18.3 11.3 64   LegendMM LegendMM LegendMM 101.33     LegendNANA

Notes on Data Quality.

Legend

  • E = Estimated
  • M = Missing
  • NA = Not Available*
  • [empty] = Indicates an unobserved value
Date modified: